Погода Могилёв-Подольский

Погода Могилёв-Подольский : погода сейчас, прогноз погоды и архив. Всё, что Вы хотите узнать о погоде Могилёв-Подольский!

Хотите узнать прогноз погоды Могилёв-Подольский? Тогда Вам сюда: Погода Могилёв-Подольский

Поиск расширенной информации на нашем сайте:

Другие новости

Новости СМИ2

Главная страница сайта

Новости сайта

03.07.2017

Напоминаем, что на нашем специализированном сайте Метеоцентр.Азия вы можете получить высокодетализированные автоматические прогнозы погоды по пунктам России, СНГ и мира в авиационном формате (включающие направление и скорость ветра, видимость, явления погоды, количество и форму облачности, нижнюю и верхнюю границу облачности).


Погода Могилёв-Подольский - сегодня

Время (UTC), дата Ветер
(°,м/с) 
Видим.   Явления Облачность Т
(°С)
Тd
(°С)
f(%) Тe
(°С)
Pmin
(гПа)
dP
(гПа)
Po
(мм)
O2
(г/м3)
Тmin Tmax R s Состояние
почвы
15 18.10.17 тихо ()   20000 м    3/0 верхняя 
[Ci fib]
+21.7 +13 58 +27  1017.2  -1.7  756  280           
18 18.10.17 тихо ()   10 км    ясно 
+12.3 +11 92 +15  1017.7  0.2  756  290    +25       
21 18.10.17 тихо ()   10 км    ясно 
+9 +8.1 94 +9  1017.9  0.1  756  294           
00 19.10.17 тихо ()   10 км    ясно 
+7.4 +6.5 94 +7  1017.5  -0.5  756  295           
03 19.10.17 тихо ()   2000 м  дымка  ясно 
+6.5 +5.8 95 +7  1017.1  -0.4  756  296           
06 19.10.17 тихо ()   0500 м  туман  ?/?  
+6.8 +6.8 100 +7  1017.1  756  296  +6  -0.9      влажная 
09 19.10.17 тихо ()   20000 м  {туман}  8/0 верхняя 
[Ci fib]
+15 +10.9 76 +17  1016.4  -0.4  755  286           
12 19.10.17 360 (С) 20000 м  {туман}  6/0 средняя, верхняя 
[Ac trans|Ci fib]
+23.9 +13.4 52 +30  1014.7  -1.4  754  277           
15 19.10.17 тихо ()   20000 м    8/0 средняя, верхняя 
[Ac trans|Ci fib]
+20.2 +14.4 69 +28  1014.2  -0.6  754  280           
18 19.10.17 тихо ()   10 км    ясно 
+13.8 +12.5 92 +18  1014.4  754  287    +24       
21 19.10.17 тихо ()   10 км    ясно 
+11.2 +10.3 94 +13  1015.4  0.9  755  290           
00 20.10.17 300 (СЗ) 10 км    ясно 
+8.3 +7.4 94 +9  1015.5  755  294           
03 20.10.17 тихо ()   2000 м  дымка  ясно 
+7.7 +7 95 +8  1016.1  0.5  755  295        494   
06 20.10.17 тихо ()   0500 м  туман  ?/?  
+7.2 +7 99 +7  1017.4  1.3  756  296  +7         
09 20.10.17 120 (ЮВ) 20000 м  {туман}  ясно 
+15.6 +11.3 76 +20  1018.1  757  286        395   
12 20.10.17 090 (В) 20000 м  {туман}  ясно 
+19.8 +12.5 63 +25  1017.4  -0.6  756  282           
15 20.10.17 090 (В) 10 км    3/0 верхняя 
[Ci fib]
+15.6   1017.7  0.2  756             
18 20.10.17 090 (В) 10 км    10/0 средняя 
[Ac und]
+14.1 +11.7 85 +18  1018.8  757  288    +19.9       
21 20.10.17 120 (ЮВ) 10 км    10/0 средняя 
[Ac und]
+14 +11.8 87 +18  1018.8  757  288           
00 21.10.17 090 (В) 2000 м  дымка  10/10 750 м 
[Sc]
+13.2 +11.9 92 +18  1018.8  757  289           
03 21.10.17 140 (ЮВ) 2000 м  слаб. морось  10/10 540 м 
[St]
+12.1 +11.1 94 +15  1018.4  -0.4  757  290          затоплена
водой 
06 21.10.17 тихо ()   4000 м  слаб. морось  10/10 300 м 
[St]
+11.6 +10.9 95 +14  1018  -0.4  756  290  +11.3    0.0     
09 21.10.17 130 (ЮВ) 4000 м  слаб. морось  10/10 500 м 
[St]
+12.7 +12 96 +18  1017.3  -0.7  756  289           
12 21.10.17 150 (ЮВ) 20000 м  {морось}  8/8 800 м 
[Sc]
+14.2 +12.4 89 +19  1014.9  -2.3  754  286           
15 21.10.17 160 (Ю) 10 км    10/8 840 м средняя 
[Sc|Ac und]
+14 +12.5 91 +20  1013.6  -1.3  753  286           
Время (UTC), дата Ветер
(°,м/с) 
Видим.   Явления Облачность Т
(°С)
Тd
(°С)
f(%) Тe
(°С)
Pmin
(гПа)
dP
(гПа)
Po
(мм)
O2
(г/м3)
Тmin Tmax R s Состояние
почвы

Для получения пояснительной информации подведите курсор к названию столбца.

ПОГОДА Могилёв-Подольский - архив

Всё, что Вы хотите узнать о погоде Могилёв-Подольский - удобно и подробно!

Выберите нужную дату (начиная с 1 января 2015* года) и нажмите кнопку "Найти".
Будут отображены архивные сводки погоды по пункту Могилёв-Подольский, начиная с указанной даты.


Отображать данные в формате CSV (для использования в таблицах Excel)


Внимание! Наш архив погоды предназначен исключительно для личного некоммерческого использования в познавательных целях. Если Вам необходимы официальные справки о состоянии погоды (для производственных, юридических, коммерческих и т.п. целей), обращайтесь в органы Росгидромета.

*Примечание: данная дата относится к архиву по метеостанциям СССР (Россия, СНГ, Балтия).
Архив по метеостанциям Зарубежной Европы и Азии (кроме Китая) хранится 10 дней, по другим регионам земного шара (Китай, Африка, Америка, Австралия, Океания) - 1 день.

Могилёв-Подольский - район местоположения метеостанции


Название, широта, долгота, высота метеостанции:
Могилёв-Подольский 48.4°ш. 27.8°д. 78 м над ур. моря [Украина]

Дополнительная информация

В oтличие oт бoльшинства пoгoдных сайтoв мы публикуем пoдрoбную метеoинфoрмацию в детальнoм прoфессиoнальнoм фoрмате.

Характеристики температуры и влажнoсти вoздуха измеряются на высoте 2 м в тени вдали oт зданий и деревьев.
Скoрoсть ветра измеряется на высoте 10 м (на урoвне рoста челoвека скoрoсть ветра ниже в 1.5-2 раза). Если метеoстанция нахoдится в гoрoде или в лесу, тo скoрoсть ветра занижена на 2-4 м/с пo сравнению с oткрытым местoм. Скoрoсть ветра над акватoриями крупных рек и oзёр, а также на вершинах хoлмoв на 2-5 м/с выше, чем в oбычных услoвиях.
Атмoсфернoе давление в разных тoчках местнoсти мoжет значительнo oтличаться oт давления на метеoстанции, в зависимoсти oт услoвий рельефа (при пoдъёме на 10 м давление пoнижается примернo на 1 мм рт.ст.).